Харбатово

Россия / Иркутская область     53°44′43″N   106°00′12″E
темп.,
°C
ветер,
м/с
пор.,
м/с
влажн.,
%
обл.,
%
осадки,
мм/ч
давл.,
гПа
погр.,
м
11 мая, вт
вт1123:00+2з22945 0.0 101537
02:00+1зсз229454 0.0 101618
05:00+1зсз1193100 0.0 101614
08:00+6сз25665 0.0 1016412
11:00+11ссз464494 0.2 10141962
14:00+13ссз4631100 0.3 10122571
17:00+13ссз4538100 0.0 10112143
20:00+9сз255887 0.4 1012191
12 мая, ср
ср1223:00+5зсз228187 0.8 101432
02:00+4з118296 0.9 101312
05:00+3сз1287100 0.1 101350
08:00+5ссз4574100 1.5 10131109
11:00+7сз564830 0.2 10131725
14:00+9ссз6733100 0.3 10122710
17:00+8ссз6635100 0.0 10122169
20:00+5с584564 0.1 1014895
13 мая, чт
чт1323:00+1сз226829 0.0 101634
02:000сз227115 0.0 101629
05:00−2сз228114 0.0 101718
08:00+3ссз46555 0.0 1017914
11:00+6ссз6734100 0.0 10152483
14:00+7ссв6841100 0.1 10152040
17:00+8с5842100 0.2 10152041
20:00+6с374810 0.3 1016233
14 мая, пт
пт1423:00+2з22615 0.0 101811
02:00+1з11660 0.0 101810
05:00−1зсз11710 0.0 101810
08:00+5св11490 0.0 1017315
11:00+11в11330 0.0 10151223
14:00+15вюв12245 0.0 10121769
17:00+15юв23215 0.0 10102214
20:00+11ююв22335 0.0 101128
15 мая, сб
сб1523:00+6ююз33535 0.0 101352
02:00+3ю225525 0.0 101318
05:00+2ю225694 0.0 101313
08:00+7юз1337100 0.0 1013281
11:00+13сз353171 0.0 10121513
14:00+11сз6749100 0.0 10141391
17:00+13з683099 0.0 10122366
20:00+9зсз4843100 0.0 1013602